Time,TemperatureF,DewpointF,PressureIn,WindDirection,WindDirectionDegrees,WindSpeedMPH,WindSpeedGustMPH,Humidity,HourlyPrecipIn,Conditions,Clouds,dailyrainin,SoftwareType,DateUTC
2013-06-17 00:09:00,75.5,65.0,29.88,WNW,296,0.0,7.0,69,0.00,,,0.00,weatherlink.com 1.10,2013-06-17 04:09:00,
2013-06-17 00:24:00,75.1,65.0,29.88,NW,326,0.0,5.0,70,0.00,,,0.00,weatherlink.com 1.10,2013-06-17 04:24:00,
2013-06-17 00:39:00,74.3,65.0,29.88,SE,141,1.0,4.0,72,0.00,,,0.00,weatherlink.com 1.10,2013-06-17 04:39:00,
2013-06-17 00:55:00,73.4,65.0,29.88,SE,142,0.0,1.0,74,0.00,,,0.00,weatherlink.com 1.10,2013-06-17 04:55:00,
2013-06-17 01:10:00,72.8,64.0,29.88,WSW,256,2.0,5.0,75,0.00,,,0.00,weatherlink.com 1.10,2013-06-17 05:10:00,
2013-06-17 01:25:00,74.2,65.0,29.88,WNW,287,0.0,8.0,72,0.00,,,0.00,weatherlink.com 1.10,2013-06-17 05:25:00,
2013-06-17 01:40:00,74.6,65.0,29.88,NW,304,0.0,8.0,71,0.00,,,0.00,weatherlink.com 1.10,2013-06-17 05:40:00,
2013-06-17 01:55:00,74.6,65.0,29.88,WNW,291,0.0,5.0,71,0.00,,,0.00,weatherlink.com 1.10,2013-06-17 05:55:00,
2013-06-17 02:10:00,74.2,65.0,29.88,WNW,290,0.0,1.0,73,0.00,,,0.00,weatherlink.com 1.10,2013-06-17 06:10:00,
2013-06-17 02:25:00,73.5,64.0,29.88,WNW,287,0.0,2.0,73,0.00,,,0.00,weatherlink.com 1.10,2013-06-17 06:25:00,
2013-06-17 02:40:00,73.2,64.0,29.88,WNW,294,0.0,3.0,74,0.00,,,0.00,weatherlink.com 1.10,2013-06-17 06:40:00,
2013-06-17 02:55:00,72.8,64.0,29.88,WSW,241,0.0,3.0,75,0.00,,,0.00,weatherlink.com 1.10,2013-06-17 06:55:00,
2013-06-17 03:10:00,72.7,64.0,29.88,West,274,0.0,3.0,75,0.00,,,0.00,weatherlink.com 1.10,2013-06-17 07:10:00,
2013-06-17 03:25:00,72.2,65.0,29.89,West,270,0.0,1.0,77,0.00,,,0.00,weatherlink.com 1.10,2013-06-17 07:25:00,
2013-06-17 03:40:00,70.8,64.0,29.89,West,270,0.0,1.0,79,0.00,,,0.00,weatherlink.com 1.10,2013-06-17 07:40:00,
2013-06-17 03:55:00,69.7,64.0,29.88,West,269,0.0,0.0,82,0.00,,,0.00,weatherlink.com 1.10,2013-06-17 07:55:00,
2013-06-17 04:10:00,68.8,64.0,29.88,West,268,2.0,2.0,84,0.00,,,0.00,weatherlink.com 1.10,2013-06-17 08:10:00,
2013-06-17 04:25:00,68.0,64.0,29.89,WSW,253,0.0,1.0,86,0.00,,,0.00,weatherlink.com 1.10,2013-06-17 08:25:00,
2013-06-17 04:40:00,67.6,63.0,29.89,WSW,253,0.0,0.0,86,0.00,,,0.00,weatherlink.com 1.10,2013-06-17 08:40:00,
2013-06-17 04:55:00,67.4,64.0,29.89,WSW,253,0.0,0.0,87,0.00,,,0.00,weatherlink.com 1.10,2013-06-17 08:55:00,
2013-06-17 05:10:00,67.0,63.0,29.89,WSW,253,0.0,0.0,87,0.00,,,0.00,weatherlink.com 1.10,2013-06-17 09:10:00,
2013-06-17 05:25:00,66.7,63.0,29.90,WSW,253,0.0,0.0,88,0.00,,,0.00,weatherlink.com 1.10,2013-06-17 09:25:00,
2013-06-17 05:40:00,66.4,63.0,29.90,WSW,253,0.0,0.0,88,0.00,,,0.00,weatherlink.com 1.10,2013-06-17 09:40:00,
2013-06-17 05:55:00,66.0,63.0,29.90,SSW,196,0.0,0.0,89,0.00,,,0.00,weatherlink.com 1.10,2013-06-17 09:55:00,
2013-06-17 06:10:00,65.9,63.0,29.90,West,271,0.0,1.0,89,0.00,,,0.00,weatherlink.com 1.10,2013-06-17 10:10:00,
2013-06-17 06:25:00,66.0,63.0,29.91,West,271,0.0,0.0,89,0.00,,,0.00,weatherlink.com 1.10,2013-06-17 10:25:00,
2013-06-17 06:40:00,66.2,63.0,29.90,West,272,0.0,1.0,90,0.00,,,0.00,weatherlink.com 1.10,2013-06-17 10:40:00,
2013-06-17 06:55:00,67.4,64.0,29.90,West,269,0.0,2.0,89,0.00,,,0.00,weatherlink.com 1.10,2013-06-17 10:55:00,
2013-06-17 07:10:00,68.1,65.0,29.90,South,172,0.0,1.0,88,0.00,,,0.00,weatherlink.com 1.10,2013-06-17 11:10:00,
2013-06-17 07:25:00,69.0,65.0,29.91,NNE,18,0.0,2.0,88,0.00,,,0.00,weatherlink.com 1.10,2013-06-17 11:25:00,
2013-06-17 07:40:00,70.8,66.0,29.90,West,275,0.0,3.0,84,0.00,,,0.00,weatherlink.com 1.10,2013-06-17 11:40:00,
2013-06-17 07:55:00,72.4,67.0,29.91,West,264,0.0,3.0,83,0.00,,,0.00,weatherlink.com 1.10,2013-06-17 11:55:00,
2013-06-17 08:10:00,73.2,67.0,29.91,West,272,0.0,1.0,82,0.00,,,0.00,weatherlink.com 1.10,2013-06-17 12:10:00,
2013-06-17 08:25:00,73.7,67.0,29.91,WNW,286,1.0,5.0,80,0.00,,,0.00,weatherlink.com 1.10,2013-06-17 12:25:00,
2013-06-17 08:40:00,74.2,67.0,29.92,WNW,284,0.0,4.0,79,0.00,,,0.00,weatherlink.com 1.10,2013-06-17 12:40:00,
2013-06-17 08:55:00,74.5,68.0,29.92,WSW,246,2.0,4.0,80,0.00,,,0.00,weatherlink.com 1.10,2013-06-17 12:55:00,
2013-06-17 09:10:00,75.1,69.0,29.91,WSW,248,0.0,5.0,80,0.00,,,0.00,weatherlink.com 1.10,2013-06-17 13:10:00,
2013-06-17 09:25:00,75.9,69.0,29.91,WSW,240,0.0,6.0,78,0.00,,,0.00,weatherlink.com 1.10,2013-06-17 13:25:00,
2013-06-17 09:40:00,76.9,70.0,29.91,WSW,248,0.0,5.0,79,0.00,,,0.00,weatherlink.com 1.10,2013-06-17 13:40:00,
2013-06-17 09:55:00,78.4,70.0,29.91,WSW,257,4.0,5.0,76,0.00,,,0.00,weatherlink.com 1.10,2013-06-17 13:55:00,
2013-06-17 10:10:00,79.0,70.0,29.90,NW,318,2.0,7.0,74,0.00,,,0.00,weatherlink.com 1.10,2013-06-17 14:10:00,
2013-06-17 10:26:00,79.5,71.0,29.89,SW,227,2.0,10.0,74,0.00,,,0.00,weatherlink.com 1.10,2013-06-17 14:26:00,
2013-06-17 10:41:00,79.3,70.0,29.89,WNW,286,0.0,5.0,72,0.00,,,0.00,weatherlink.com 1.10,2013-06-17 14:41:00,
2013-06-17 10:56:00,79.2,69.0,29.90,WSW,257,2.0,4.0,72,0.00,,,0.00,weatherlink.com 1.10,2013-06-17 14:56:00,
2013-06-17 11:11:00,79.7,71.0,29.89,NNW,348,3.0,4.0,75,0.00,,,0.00,weatherlink.com 1.10,2013-06-17 15:11:00,
2013-06-17 11:26:00,81.0,70.0,29.89,SW,227,1.0,5.0,70,0.00,,,0.00,weatherlink.com 1.10,2013-06-17 15:26:00,
2013-06-17 11:41:00,82.3,71.0,29.89,SSW,205,0.0,7.0,69,0.00,,,0.00,weatherlink.com 1.10,2013-06-17 15:41:00,
2013-06-17 11:56:00,82.3,71.0,29.89,West,281,2.0,6.0,69,0.00,,,0.00,weatherlink.com 1.10,2013-06-17 15:56:00,
2013-06-17 12:11:00,82.9,70.0,29.89,West,274,1.0,6.0,66,0.00,,,0.00,weatherlink.com 1.10,2013-06-17 16:11:00,
2013-06-17 12:26:00,82.7,70.0,29.89,West,265,0.0,2.0,66,0.00,,,0.00,weatherlink.com 1.10,2013-06-17 16:26:00,
2013-06-17 12:41:00,83.4,69.0,29.89,WNW,294,0.0,4.0,63,0.00,,,0.00,weatherlink.com 1.10,2013-06-17 16:41:00,
2013-06-17 12:56:00,83.9,69.0,29.89,West,263,0.0,3.0,62,0.00,,,0.00,weatherlink.com 1.10,2013-06-17 16:56:00,
2013-06-17 13:11:00,84.9,70.0,29.88,WNW,293,0.0,5.0,61,0.00,,,0.00,weatherlink.com 1.10,2013-06-17 17:11:00,
2013-06-17 13:26:00,85.4,70.0,29.88,WSW,238,1.0,5.0,61,0.00,,,0.00,weatherlink.com 1.10,2013-06-17 17:26:00,
2013-06-17 13:41:00,85.7,71.0,29.87,NW,316,0.0,7.0,61,0.00,,,0.00,weatherlink.com 1.10,2013-06-17 17:41:00,
2013-06-17 13:56:00,85.1,70.0,29.87,West,273,2.0,7.0,61,0.00,,,0.00,weatherlink.com 1.10,2013-06-17 17:56:00,
2013-06-17 14:11:00,85.4,69.0,29.87,West,276,1.0,7.0,59,0.00,,,0.00,weatherlink.com 1.10,2013-06-17 18:11:00,
2013-06-17 14:26:00,84.9,70.0,29.87,NW,311,2.0,8.0,61,0.00,,,0.00,weatherlink.com 1.10,2013-06-17 18:26:00,
2013-06-17 14:41:00,85.2,71.0,29.86,West,269,1.0,7.0,62,0.00,,,0.00,weatherlink.com 1.10,2013-06-17 18:41:00,
2013-06-17 14:56:00,85.5,71.0,29.86,WSW,244,0.0,6.0,62,0.00,,,0.00,weatherlink.com 1.10,2013-06-17 18:56:00,
2013-06-17 15:11:00,86.7,71.0,29.86,West,276,1.0,4.0,60,0.00,,,0.00,weatherlink.com 1.10,2013-06-17 19:11:00,
2013-06-17 15:26:00,86.4,70.0,29.86,West,276,0.0,5.0,58,0.00,,,0.00,weatherlink.com 1.10,2013-06-17 19:26:00,
2013-06-17 15:41:00,86.4,71.0,29.86,WSW,244,0.0,4.0,61,0.00,,,0.00,weatherlink.com 1.10,2013-06-17 19:41:00,
2013-06-17 15:56:00,86.4,72.0,29.85,NNW,344,1.0,5.0,62,0.00,,,0.00,weatherlink.com 1.10,2013-06-17 19:56:00,
2013-06-17 16:11:00,86.2,71.0,29.84,West,279,0.0,6.0,61,0.00,,,0.00,weatherlink.com 1.10,2013-06-17 20:11:00,
2013-06-17 16:26:00,86.4,71.0,29.84,WSW,242,1.0,6.0,60,0.00,,,0.00,weatherlink.com 1.10,2013-06-17 20:26:00,
2013-06-17 16:41:00,86.3,70.0,29.83,West,261,0.0,6.0,59,0.00,,,0.00,weatherlink.com 1.10,2013-06-17 20:41:00,
2013-06-17 16:56:00,86.7,71.0,29.84,West,267,1.0,3.0,60,0.00,,,0.00,weatherlink.com 1.10,2013-06-17 20:56:00,
2013-06-17 17:11:00,86.5,70.0,29.83,WSW,252,0.0,3.0,59,0.00,,,0.00,weatherlink.com 1.10,2013-06-17 21:11:00,
2013-06-17 17:26:00,86.8,71.0,29.83,West,273,1.0,3.0,59,0.00,,,0.00,weatherlink.com 1.10,2013-06-17 21:26:00,
2013-06-17 17:41:00,86.2,70.0,29.83,NNW,340,0.0,3.0,59,0.00,,,0.00,weatherlink.com 1.10,2013-06-17 21:41:00,
2013-06-17 17:56:00,85.8,71.0,29.83,West,262,1.0,4.0,61,0.00,,,0.00,weatherlink.com 1.10,2013-06-17 21:56:00,
2013-06-17 18:11:00,85.7,70.0,29.83,WNW,296,1.0,2.0,60,0.00,,,0.00,weatherlink.com 1.10,2013-06-17 22:11:00,
2013-06-17 18:26:00,86.0,70.0,29.84,WNW,287,0.0,3.0,59,0.00,,,0.00,weatherlink.com 1.10,2013-06-17 22:26:00,
2013-06-17 18:41:00,85.9,71.0,29.84,West,279,0.0,4.0,62,0.00,,,0.00,weatherlink.com 1.10,2013-06-17 22:41:00,
2013-06-17 18:56:00,86.3,71.0,29.83,West,276,0.0,3.0,61,0.00,,,0.00,weatherlink.com 1.10,2013-06-17 22:56:00,
2013-06-17 19:11:00,86.2,72.0,29.83,WSW,256,1.0,3.0,62,0.00,,,0.00,weatherlink.com 1.10,2013-06-17 23:11:00,
2013-06-17 19:26:00,85.2,72.0,29.83,WNW,292,0.0,4.0,64,0.00,,,0.00,weatherlink.com 1.10,2013-06-17 23:26:00,
2013-06-17 19:41:00,84.4,72.0,29.83,WNW,282,0.0,1.0,66,0.00,,,0.00,weatherlink.com 1.10,2013-06-17 23:41:00,
2013-06-17 19:56:00,83.6,71.0,29.84,WNW,283,0.0,2.0,66,0.00,,,0.00,weatherlink.com 1.10,2013-06-17 23:56:00,
2013-06-17 20:11:00,82.7,72.0,29.84,WNW,283,0.0,1.0,71,0.00,,,0.00,weatherlink.com 1.10,2013-06-18 00:11:00,
2013-06-17 20:26:00,81.5,72.0,29.84,WNW,282,0.0,1.0,72,0.00,,,0.00,weatherlink.com 1.10,2013-06-18 00:26:00,
2013-06-17 20:41:00,80.7,72.0,29.85,West,281,0.0,0.0,75,0.00,,,0.00,weatherlink.com 1.10,2013-06-18 00:41:00,
2013-06-17 20:56:00,79.4,72.0,29.85,WNW,290,0.0,1.0,78,0.00,,,0.00,weatherlink.com 1.10,2013-06-18 00:56:00,
2013-06-17 21:11:00,77.8,71.0,29.85,WNW,290,0.0,2.0,80,0.00,,,0.00,weatherlink.com 1.10,2013-06-18 01:11:00,
2013-06-17 21:26:00,76.6,71.0,29.86,WNW,290,0.0,0.0,82,0.00,,,0.00,weatherlink.com 1.10,2013-06-18 01:26:00,
2013-06-17 21:41:00,75.6,69.0,29.87,WNW,290,0.0,0.0,81,0.00,,,0.00,weatherlink.com 1.10,2013-06-18 01:41:00,
2013-06-17 21:56:00,74.9,69.0,29.87,WNW,290,0.0,0.0,82,0.00,,,0.00,weatherlink.com 1.10,2013-06-18 01:56:00,
2013-06-17 22:11:00,74.2,68.0,29.87,WNW,290,0.0,0.0,82,0.00,,,0.00,weatherlink.com 1.10,2013-06-18 02:11:00,
2013-06-17 22:26:00,73.5,68.0,29.87,WNW,290,0.0,0.0,82,0.00,,,0.00,weatherlink.com 1.10,2013-06-18 02:26:00,
2013-06-17 22:41:00,73.1,67.0,29.88,WNW,290,0.0,0.0,82,0.00,,,0.00,weatherlink.com 1.10,2013-06-18 02:41:00,
2013-06-17 22:56:00,72.6,68.0,29.88,WNW,290,0.0,0.0,84,0.00,,,0.00,weatherlink.com 1.10,2013-06-18 02:56:00,
2013-06-17 23:11:00,72.1,67.0,29.87,WNW,290,0.0,0.0,84,0.00,,,0.00,weatherlink.com 1.10,2013-06-18 03:11:00,
2013-06-17 23:26:00,71.7,67.0,29.88,WNW,290,0.0,0.0,86,0.00,,,0.00,weatherlink.com 1.10,2013-06-18 03:26:00,
2013-06-17 23:41:00,71.3,67.0,29.88,WNW,290,0.0,0.0,87,0.00,,,0.00,weatherlink.com 1.10,2013-06-18 03:41:00,
2013-06-17 23:56:00,70.7,67.0,29.88,WNW,290,0.0,0.0,88,0.00,,,0.00,weatherlink.com 1.10,2013-06-18 03:56:00,